Weather in Cayo Largo

Cuba     21°38′11″N   81°29′23″W
temp.,
°C
wind,
m/s
gust,
m/s
humid.,
%
clouds,
%
prec.,
mm/h
press.,
hPa
HPBL,
m
10 may, mon
mon1023:00+28e56660 0.0 1017739
02:00+28e55690 0.0 1016860
05:00+28ese77740 1.7 1015909
08:00+28ese887249 2.8 10171093
11:00+27ese777527 0.1 1018775
14:00+28ese66750 0.3 1016740
17:00+28se44730 0.0 1015653
20:00+28sse44710 0.0 1015654
11 may, tue
tue1123:00+28ese33700 0.9 1017258
02:00+28ese45700 1.0 1015583
05:00+28e34710 0.1 1015631
08:00+28ese557399 0.1 1016689
11:00+28ese337210 0.0 1017686
14:00+28ese44710 0.0 1016786
17:00+28s55710 0.0 1015448
20:00+28s216814 0.0 1015443
12 may, wed
wed1223:00+28ene45743 0.6 1017357
02:00+28e44728 0.8 1016690
05:00+28ese56725 0.3 1015768
08:00+28ese66715 0.3 1016831
11:00+28se55715 0.0 1017951
14:00+28ese44715 0.0 1016694
17:00+28sse346890 0.0 1014619
20:00+28s23704 0.0 1015530
13 may, thu
thu1323:00+28se11705 0.0 1016419
02:00+28nnw00715 0.0 1016336
05:00+28n117051 0.0 1014431
08:00+28n1169100 0.0 1016398
11:00+28nne11704 0.0 1017374
14:00+28wsw11675 0.0 1016310
17:00+29sw43620 0.0 1014470
20:00+29w34691 0.0 1015441
14 may, fri
fri1423:00+29wnw3469100 0.1 1016486
02:00+28nne447395 0.1 1015507
05:00+27nne66755 0.2 1014497
08:00+27ne777767 0.2 1016530
11:00+27ne677519 0.0 1016602
14:00+28se226488 0.0 1015377
17:00+29ssw446773 0.0 1014348
20:00+28nw5671100 0.8 1015411